Meteo Giornale » Osservazioni meteo Stati Uniti (USA) » Sumter
ore: 13:30 - Osservazioni Meteo Sumter
Lat. 34° 0' N Lon. 80° 22' W Alt. 56 metri s.l.m.
32 °C
Nuvoloso
Temp. 24 Ore
21 °C
32 °C
Nord
0 Km/h
Dew point 23 °C
Umidità 59 %
Visibilità 10 Km
Il sole sorge alle ore 06:54
Il sole tramonta alle ore 19:48
| Data e Ora | Cielo e Fenomeni | T °C | DP °C | Um. % | Pres. hPa | Vis. km | Vento km/h | |
|---|---|---|---|---|---|---|---|---|
| Oggi h: 13:30 | Nuvoloso | 32 | 23 | 59 | 1020 | 10 | N 0 | |
| Oggi h: 13:10 | Coperto | 31 | 23 | 62 | 1020 | 10 | N 0 | |
| Oggi h: 12:50 | Molto Nuvoloso | 31 | 24 | 66 | 1020 | 10 | N/NO 7.4 | |
| Oggi h: 12:35 | Molto Nuvoloso | 32 | 24 | 62 | 1020 | 10 | N 0 | |
| Oggi h: 12:10 | Molto Nuvoloso | 31 | 24 | 66 | 1021 | 10 | N 0 | |
| Oggi h: 11:50 | Molto Nuvoloso | 30 | 24 | 70 | 1021 | 10 | N 9.3 | |
| Oggi h: 11:30 | Molto Nuvoloso | 30 | 24 | 70 | 1021 | 10 | N 0 | |
| Oggi h: 11:10 | Coperto | 29 | 24 | 74 | 1021 | 10 | N/NO 7.4 | |
| Oggi h: 10:50 | Molto Nuvoloso | 29 | 24 | 74 | 1021 | 10 | N/NO 7.4 | |
| Oggi h: 10:30 | Nuvoloso | 29 | 25 | 79 | 1020 | 10 | N 7.4 | |
| Oggi h: 10:10 | Poco Nuvoloso | 28 | 25 | 83 | 1020 | 10 | N 0 | |
| Oggi h: 09:50 | Poco Nuvoloso | 27 | 25 | 88 | 1021 | 10 | N 0 | |
| Oggi h: 09:30 | Nuvoloso | 26 | 25 | 94 | 1020 | 10 | N/NO 7.4 | |
| Oggi h: 09:10 | Molto Nuvoloso | 24 | 24 | 100 | 1020 | 11 | N 0 | |
| Oggi h: 08:50 | Foschia | 23 | 23 | 100 | 1021 | 8 | N 0 | |
| Oggi h: 08:30 | Foschia | 23 | 23 | 100 | 1020 | 2 | N 0 | |
| Oggi h: 08:10 | Nebbia | 22 | 22 | 100 | 1020 | 0 | N 0 | |
| Oggi h: 07:50 | Nebbia | 22 | 22 | 100 | 1020 | 0 | N 0 | |
| Oggi h: 07:30 | Foschia | 22 | 22 | 100 | 1020 | 5 | N 0 | |
| Oggi h: 07:10 | Foschia | 21 | 21 | 100 | 1020 | 5 | N 0 | |
| Oggi h: 06:50 | Foschia | 21 | 21 | 100 | 1020 | 8 | N 0 | |
| Oggi h: 06:30 | Foschia | 21 | 21 | 100 | 1020 | 2 | N 0 | |
| Oggi h: 06:10 | Foschia | 21 | 21 | 100 | 1020 | 10 | N 0 | |
| Oggi h: 05:50 | Sereno | 21 | 21 | 100 | 1020 | 14 | N 0 | |
| Oggi h: 05:30 | Foschia | 21 | 21 | 100 | 1020 | 5 | N 0 | |
| Oggi h: 05:10 | Nebbia | 21 | 21 | 100 | 1020 | 2 | N 0 | |
| Oggi h: 04:50 | Foschia | 22 | 22 | 100 | 1020 | 5 | N 0 | |
| Oggi h: 04:30 | Foschia | 22 | 22 | 100 | 1020 | 2 | N 0 | |
| Oggi h: 04:10 | Poco Nuvoloso | 21 | 21 | 100 | 1019 | 10 | N 5.5 | |
| Oggi h: 03:50 | Sereno | 21 | 21 | 100 | 1019 | 11 | N 0 | |
| Oggi h: 03:30 | Foschia | 21 | 21 | 100 | 1019 | 2 | N 0 | |
| Oggi h: 03:10 | Sereno | 22 | 22 | 100 | 1019 | 11 | N 0 | |
| Oggi h: 02:50 | Sereno | 22 | 22 | 100 | 1020 | 14 | N 0 | |
| Oggi h: 02:30 | Foschia | 22 | 22 | 100 | 1020 | 8 | N 0 | |
| Oggi h: 02:10 | Sereno | 22 | 22 | 100 | 1020 | 14 | N 0 | |
| Oggi h: 01:50 | Foschia | 22 | 22 | 100 | 1020 | 10 | N 0 | |
| Oggi h: 01:30 | Sereno | 22 | 22 | 100 | 1020 | 10 | N 0 | |
| Oggi h: 01:10 | Sereno | 22 | 23 | 0 | 1020 | 10 | N 0 | |
| Oggi h: 00:50 | Sereno | 22 | 22 | 100 | 1020 | 10 | N 0 | |
| Oggi h: 00:30 | Sereno | 22 | 22 | 100 | 1020 | 13 | N 0 | |
| Oggi h: 00:10 | Sereno | 23 | 23 | 100 | 1020 | 10 | N 0 | |
| Ieri h: 23:50 | Sereno | 23 | 23 | 100 | 1020 | 10 | N 0 | |
| Ieri h: 23:30 | Sereno | 23 | 23 | 100 | 1020 | 10 | N 0 | |
| Ieri h: 23:10 | Sereno | 24 | 24 | 100 | 1020 | 10 | N 0 | |
| Ieri h: 22:50 | Sereno | 24 | 24 | 100 | 1020 | 10 | N 0 | |
| Ieri h: 22:30 | Sereno | 24 | 24 | 100 | 1020 | 10 | N 5.5 | |
| Ieri h: 22:10 | Sereno | 24 | 24 | 100 | 1020 | 10 | N 0 | |
| Ieri h: 21:50 | Sereno | 24 | 24 | 100 | 1020 | 10 | N 0 | |
| Ieri h: 21:30 | Sereno | 24 | 24 | 100 | 1020 | 10 | N 0 | |
| Ieri h: 21:10 | Sereno | 24 | 24 | 100 | 1020 | 10 | N 0 | |
| Ieri h: 20:50 | Sereno | 25 | 24 | 94 | 1020 | 10 | N 0 | |
| Ieri h: 20:30 | Sereno | 26 | 24 | 88 | 1020 | 10 | N 0 | |
| Ieri h: 20:10 | Sereno | 27 | 24 | 83 | 1019 | 10 | N 0 | |
| Ieri h: 19:50 | Sereno | 27 | 24 | 83 | 1019 | 10 | N 0 | |
| Ieri h: 19:30 | Sereno | 28 | 24 | 78 | 1019 | 10 | N 0 | |
| Ieri h: 19:10 | Sereno | 29 | 23 | 70 | 1019 | 10 | E/SE 9.3 | |
| Ieri h: 18:50 | Sereno | 30 | 24 | 70 | 1019 | 10 | E/SE 9.3 | |
| Ieri h: 18:30 | Sereno | 30 | 24 | 70 | 1020 | 10 | N 9.3 | |
| Ieri h: 18:10 | Sereno | 30 | 24 | 70 | 1019 | 10 | E/SE 9.3 | |
| Ieri h: 17:50 | Poco Nuvoloso | 29 | 24 | 74 | 1019 | 10 | E 9.3 | |
| Ieri h: 17:30 | Sereno | 29 | 25 | 79 | 1020 | 10 | N 7.4 | |
| Ieri h: 17:10 | Poco Nuvoloso | 29 | 24 | 74 | 1020 | 10 | N/NE 9.3 | |
| Ieri h: 16:50 | Molto Nuvoloso | 29 | 24 | 74 | 1020 | 10 | N 11.1 | |
| Ieri h: 16:30 | Sereno | 30 | 24 | 70 | 1020 | 10 | N/NE 7.4 | |
| Ieri h: 16:10 | Sereno | 30 | 24 | 70 | 1020 | 10 | N 5.5 | |
| Ieri h: 15:50 | Nuvoloso | 29 | 24 | 74 | 1020 | 10 | N 5.5 | |
| Ieri h: 15:30 | Molto Nuvoloso | 29 | 24 | 74 | 1020 | 10 | N 5.5 | |
| Ieri h: 15:10 | Molto Nuvoloso | 29 | 25 | 79 | 1020 | 10 | N 0 | |
| Ieri h: 14:50 | Coperto | 28 | 25 | 83 | 1021 | 10 | E/SE 7.4 | |



